Weather reports worldwide

Advertisment
Cerezo De Arriba, Spain (8143): temperature & dewpoint: 16.06.2018 15:00:00 - 22.06.2018 15:00:00 (CEST)Cerezo De Arriba, Spain (8143): wind speed & gusts: 16.06.2018 15:00:00 - 22.06.2018 15:00:00 (CEST)Cerezo De Arriba, Spain (8143): wind direction: 16.06.2018 15:00:00 - 22.06.2018 15:00:00 (CEST)Cerezo De Arriba, Spain (8143): visibility: 16.06.2018 15:00:00 - 22.06.2018 15:00:00 (CEST)Cerezo De Arriba, Spain (8143): sunshine duration: 16.06.2018 15:00:00 - 22.06.2018 15:00:00 (CEST)Cerezo De Arriba, Spain (8143): precipitation: 16.06.2018 15:00:00 - 22.06.2018 15:00:00 (CEST)
Date & Time tt [°C] td [°C] ff [km/h] ff [kn] fx [km/h] fx [kn] dd vv [km] sd [min] rr [mm]
22.06.2018 15:00:00 - - - - - - - - - -
22.06.2018 14:00:00 20,0 9,3 5 3 8 4 ESE 20 7 -
22.06.2018 13:00:00 19,1 10,2 4 2 8 4 ENE 20 0 0,0
22.06.2018 12:00:00 19,1 10,2 7 4 18 10 NNE 20 43 0,0
22.06.2018 11:00:00 21,5 6,5 9 5 34 18 S 20 60 0,0
22.06.2018 10:00:00 18,6 6,7 26 14 39 21 S 19 60 0,0
22.06.2018 09:00:00 18,3 5,5 28 15 37 20 S 19 60 0,0
22.06.2018 08:00:00 17,0 5,3 29 16 37 20 S 20 32 -
22.06.2018 07:00:00 15,7 5,0 29 16 41 22 S 20 0 0,0
22.06.2018 06:00:00 16,3 4,3 32 17 41 22 S 20 0 0,0
22.06.2018 05:00:00 16,2 4,6 31 17 41 22 S 20 0 0,0
22.06.2018 04:00:00 16,4 5,9 31 17 46 25 S 20 0 0,0
22.06.2018 03:00:00 17,1 8,3 26 14 56 30 SSE 20 0 0,0
22.06.2018 02:00:00 17,4 8,3 22 12 40 21 SSW 20 0 -
22.06.2018 01:00:00 17,6 8,7 15 8 32 18 S 20 0 0,0
22.06.2018 00:00:00 17,4 8,3 12 6 23 13 SSE 20 0 0,0
21.06.2018 23:00:00 16,8 7,1 11 6 16 9 SSE 20 0 0,0
21.06.2018 22:00:00 17,8 7,3 9 5 13 7 S 20 0 0,0
21.06.2018 21:00:00 18,8 7,8 5 3 18 10 SE 20 4 0,0
21.06.2018 20:00:00 22,1 5,9 9 5 20 11 W 20 28 -
21.06.2018 19:00:00 21,0 6,1 6 3 32 17 NNW 20 24 0,0
21.06.2018 18:00:00 24,0 6,2 10 5 35 19 SW 20 60 0,0
21.06.2018 17:00:00 23,0 6,7 11 6 34 18 S 20 60 0,0
21.06.2018 16:00:00 23,0 3,4 15 8 34 18 WSW 20 60 0,0
21.06.2018 15:00:00 21,9 3,0 15 8 38 21 SW 20 60 0,0
21.06.2018 14:00:00 21,1 4,6 12 7 34 19 SW 20 60 -
21.06.2018 13:00:00 20,1 6,8 12 6 44 24 SSE 20 60 0,0
21.06.2018 12:00:00 19,0 8,7 19 11 46 25 S 20 60 0,0
21.06.2018 11:00:00 17,9 9,8 34 19 43 23 S 20 60 0,0
21.06.2018 10:00:00 18,4 9,9 22 12 33 18 S 20 60 0,0
21.06.2018 09:00:00 18,8 9,0 10 6 32 17 S 20 60 0,0
21.06.2018 08:00:00 16,3 9,4 10 5 14 8 SE 20 32 -
21.06.2018 07:00:00 14,0 8,7 5 3 12 7 E 20 0 0,0
21.06.2018 06:00:00 13,1 8,8 3 1 14 7 SSW 20 0 0,0
21.06.2018 05:00:00 13,5 9,9 9 5 24 13 ENE 20 0 0,0
21.06.2018 04:00:00 15,3 9,4 11 6 44 24 S 20 0 0,0
21.06.2018 03:00:00 16,1 8,5 30 16 44 24 S 20 0 0,0
21.06.2018 02:00:00 16,8 8,0 34 18 44 24 SSE 20 0 -
21.06.2018 01:00:00 17,4 8,5 21 12 47 26 S 20 0 0,2
21.06.2018 00:00:00 16,7 8,9 33 18 41 22 SSE 20 0 0,0
20.06.2018 23:00:00 18,2 10,3 16 9 23 13 S 20 0 0,0
20.06.2018 22:00:00 17,5 10,2 11 6 18 10 SSE 20 0 0,0
20.06.2018 21:00:00 17,6 11,4 9 5 14 7 S 20 0 0,2
20.06.2018 20:00:00 19,9 11,7 1 1 13 7 SE 11 0 -
20.06.2018 19:00:00 19,7 10,6 4 2 13 7 E 20 0 0,0
20.06.2018 18:00:00 20,6 10,0 8 5 19 10 SE 20 23 0,0
20.06.2018 17:00:00 20,7 11,3 5 3 16 9 NNW 20 2 0,0
20.06.2018 16:00:00 19,7 11,7 8 5 19 10 N 17 10 0,0
20.06.2018 15:00:00 20,6 10,4 4 2 17 9 SE 20 1 0,0
20.06.2018 14:00:00 21,1 10,9 7 4 15 8 NNE 20 7 -
20.06.2018 13:00:00 19,4 11,4 9 5 18 10 NNE 19 12 0,0
20.06.2018 12:00:00 18,9 11,0 4 2 22 12 SE 20 4 0,0
20.06.2018 11:00:00 21,3 10,2 6 3 21 11 N 20 60 0,0
20.06.2018 10:00:00 20,4 9,7 8 5 18 10 SSE 18 60 0,0
20.06.2018 09:00:00 18,2 8,8 12 6 21 12 SSE 20 60 0,0
20.06.2018 08:00:00 16,3 8,0 16 9 36 20 S 20 32 -
20.06.2018 07:00:00 14,8 8,1 25 13 38 20 S 20 0 0,0
20.06.2018 06:00:00 14,6 8,1 28 15 - - S 20 - -
20.06.2018 05:00:00 14,6 7,8 36 20 47 26 S 20 0 0,0
20.06.2018 04:00:00 15,4 7,4 35 19 44 24 S 20 0 0,0
20.06.2018 03:00:00 16,2 7,4 28 15 37 20 S 20 0 0,0
20.06.2018 02:00:00 16,1 8,1 18 10 22 12 S 20 0 -
20.06.2018 01:00:00 15,9 8,7 10 5 16 9 S 20 0 0,0
20.06.2018 00:00:00 16,2 8,9 12 7 19 10 S 20 0 0,0
19.06.2018 23:00:00 17,0 8,4 15 8 21 11 S 20 0 0,0
19.06.2018 22:00:00 17,6 8,7 13 7 24 13 S 20 19 0,0
19.06.2018 21:00:00 20,4 8,7 9 5 26 14 WSW 20 60 0,0
19.06.2018 20:00:00 20,8 8,4 12 6 27 15 SW 20 60 -
19.06.2018 19:00:00 21,9 8,4 9 5 32 17 NNW 20 60 0,0
19.06.2018 18:00:00 22,5 8,3 12 6 31 17 NNE 20 60 0,0
19.06.2018 17:00:00 21,9 8,8 15 8 39 21 NNW 20 60 0,0
19.06.2018 16:00:00 21,7 8,3 13 7 32 17 N 20 60 0,0
19.06.2018 15:00:00 21,4 8,7 11 6 33 18 N 20 60 0,0
19.06.2018 14:00:00 20,5 7,1 5 3 23 12 WSW 20 60 -
19.06.2018 13:00:00 19,2 7,6 13 7 38 20 SSE 20 60 0,0
19.06.2018 12:00:00 17,6 6,4 27 14 41 22 SSW 20 60 0,0
19.06.2018 11:00:00 17,0 6,5 25 13 49 26 S 20 60 0,0
19.06.2018 10:00:00 16,0 6,4 33 18 51 28 S 20 60 0,0
19.06.2018 09:00:00 15,5 3,6 33 18 45 24 S 20 60 0,0
19.06.2018 08:00:00 15,3 0,0 6 4 17 9 S 17 32 -
19.06.2018 07:00:00 12,2 -1,7 9 5 19 11 S 20 0 0,0
19.06.2018 06:00:00 12,7 -6,4 14 8 24 13 SE 20 0 0,0
19.06.2018 05:00:00 13,7 -6,0 23 12 30 16 SSE 20 0 0,0
19.06.2018 04:00:00 13,3 -3,6 20 11 30 16 SE 20 0 0,0
19.06.2018 03:00:00 13,3 6,2 10 6 16 9 SSE 20 0 0,0
19.06.2018 02:00:00 14,5 6,5 8 4 14 7 ESE 20 0 -
19.06.2018 01:00:00 13,8 5,9 10 6 15 8 SSE 20 0 0,0
19.06.2018 00:00:00 13,7 5,8 10 5 13 7 SSE 20 0 0,0
18.06.2018 23:00:00 13,4 7,6 4 2 15 8 SSE 20 0 0,0
18.06.2018 22:00:00 14,2 9,8 4 2 22 12 NE 20 19 0,0
18.06.2018 21:00:00 16,4 9,6 11 6 26 14 N 20 60 0,0
18.06.2018 20:00:00 18,2 9,3 16 9 28 15 N 20 58 -
18.06.2018 19:00:00 19,8 9,3 13 7 31 17 N 20 59 0,0
18.06.2018 18:00:00 20,1 9,0 16 8 30 16 N 20 60 0,0
18.06.2018 17:00:00 20,0 8,4 14 8 32 17 N 20 60 0,0
18.06.2018 16:00:00 19,7 8,9 13 7 31 17 N 20 60 0,0
18.06.2018 15:00:00 19,2 8,0 14 7 31 17 N 20 60 0,0
18.06.2018 14:00:00 18,4 8,9 10 6 32 18 NNE 20 60 -
18.06.2018 13:00:00 17,1 9,3 17 9 34 18 N 20 60 0,0
18.06.2018 12:00:00 17,6 7,6 16 9 32 17 NNE 20 60 0,0
18.06.2018 11:00:00 17,0 6,5 11 6 24 13 NNE 20 60 0,0
18.06.2018 10:00:00 16,6 5,0 7 4 18 10 E 20 60 0,0
18.06.2018 09:00:00 14,9 3,4 10 6 23 12 E 20 60 0,0
18.06.2018 08:00:00 13,3 3,6 5 3 15 8 SSE 20 33 -
18.06.2018 07:00:00 11,1 3,8 5 3 11 6 SE 20 0 0,0
18.06.2018 06:00:00 11,7 3,2 7 4 12 7 SSE 20 0 0,0
18.06.2018 05:00:00 12,0 3,2 7 4 18 10 SSE 20 0 0,0
18.06.2018 04:00:00 12,8 2,9 8 5 16 9 ESE 20 0 0,0
18.06.2018 03:00:00 12,8 4,3 7 4 19 10 E 20 0 0,0
18.06.2018 02:00:00 12,6 2,5 9 5 24 13 E 20 0 -
18.06.2018 01:00:00 12,6 3,0 8 4 18 10 ESE 20 0 0,0
18.06.2018 00:00:00 12,6 4,1 7 4 17 9 ESE 20 0 0,0
17.06.2018 23:00:00 11,4 5,0 4 2 12 7 SE 20 0 0,0
17.06.2018 22:00:00 13,5 3,6 4 2 21 12 NW 20 19 0,0
17.06.2018 21:00:00 16,3 6,1 13 7 26 14 N 20 60 0,0
17.06.2018 20:00:00 17,7 3,2 9 5 29 15 N 20 60 -
17.06.2018 19:00:00 18,1 -0,3 13 7 30 16 NNW 20 60 0,0
17.06.2018 18:00:00 18,4 -2,5 16 8 32 17 NNW 20 60 0,0
17.06.2018 17:00:00 18,0 2,7 13 7 39 21 N 20 60 0,0
17.06.2018 16:00:00 18,2 6,4 14 7 32 17 N 20 60 0,0
17.06.2018 15:00:00 17,7 7,4 15 8 35 19 N 20 60 0,0
17.06.2018 14:00:00 16,8 8,0 18 10 37 20 N 20 59 -
17.06.2018 13:00:00 17,2 8,1 13 7 32 17 N 20 60 0,0
17.06.2018 12:00:00 16,5 8,3 15 8 28 15 N 20 60 0,0
17.06.2018 11:00:00 16,4 7,0 10 5 24 13 N 20 60 0,0
17.06.2018 10:00:00 16,9 7,8 5 3 13 7 E 20 60 0,0
17.06.2018 09:00:00 15,9 7,1 5 3 13 7 SE 20 60 0,0
17.06.2018 08:00:00 13,5 5,9 8 4 13 7 SSE 20 31 -
17.06.2018 07:00:00 12,2 4,1 5 3 14 7 SSE 20 0 0,0
17.06.2018 06:00:00 11,5 3,9 9 5 19 10 SSE 20 0 0,0
17.06.2018 05:00:00 11,4 3,9 7 4 16 9 SE 20 0 0,0
17.06.2018 04:00:00 11,6 2,7 9 5 18 10 ESE 20 0 0,0
17.06.2018 03:00:00 11,5 -0,3 8 5 14 8 SSE 20 0 0,0
17.06.2018 02:00:00 11,6 -1,0 5 3 13 7 S 20 0 -
17.06.2018 01:00:00 12,0 1,9 5 3 14 8 SE 20 0 0,0
17.06.2018 00:00:00 11,9 0,9 8 5 13 7 SSE 20 0 0,0
16.06.2018 23:00:00 11,7 0,4 8 4 13 7 SSE 20 0 0,0
16.06.2018 22:00:00 12,7 4,6 4 2 17 9 SE 20 19 0,0
16.06.2018 21:00:00 16,8 2,1 6 4 20 11 N 20 60 0,0
16.06.2018 20:00:00 17,5 0,6 10 6 21 11 NNW 20 60 -
16.06.2018 19:00:00 18,3 0,4 9 5 29 15 NW 20 60 0,0
16.06.2018 18:00:00 18,1 1,1 13 7 34 19 N 20 60 0,0
16.06.2018 17:00:00 18,2 1,7 13 7 33 18 N 20 60 0,0
16.06.2018 16:00:00 18,2 6,4 11 6 35 19 NW 20 60 0,0
16.06.2018 15:00:00 18,1 8,9 12 6 31 17 N 20 49 0,0

tt = temperature
td = dewpoint
ff = wind speed
fx = gusts
dd = wind direction
vv = visibility
sd = sunshine duration
rr = precipitation

Next stations